Regional Weather Roundup
Issued by NWS Grand Forks, ND

Home | Current Version | Previous Version | Graphics & Text | Print | Product List | Glossary On
Versions: 1 2 3 4 5 6 7 8 9 10 11 12 13 14 15 16 17 18 19 20 21 22 23 24 25 26 27 28 29 30 31 32 33 34 35 36 37 38 39 40 41 42 43 44 45 46 47 48 49 50
000
ASUS43 KFGF 161631
RWRFGF
PRAIRIE TO PINES  WEATHER ROUNDUP
NATIONAL WEATHER SERVICE EASTERN NORTH DAKOTA/GRAND FORKS ND
1100 AM CDT TUE SEP 16 2014

 **SATELLITE DATA USED TO AUGMENT SKY COVER AT AUTOMATED STATIONS**
 *****  WEATHER ACROSS EASTERN NORTH DAKOTA  *****

CITY           SKY/WX    TMP DP  RH WIND       PRES   REMARKS
GRAND FORKS    MOSUNNY   64  43  46 SW12      30.02S
GRAND FRKS AFB SUNNY     64  43  46 W12       30.02S
GRAND FRKS NWS   N/A     64 N/A N/A W9          N/A
DEVILS LAKE    SUNNY     61  43  51 W6        30.01S
FARGO          SUNNY     60  41  49 S10       30.06F
WAHPETON ARPT  SUNNY     63  39  42 S5        30.08F
$$

 ***** WEATHER ACROSS CENTRAL AND WESTERN NORTH DAKOTA  *****

CITY           SKY/WX    TMP DP  RH WIND       PRES   REMARKS
BISMARCK       SUNNY     59  45  59 CALM      30.02F
MINOT          SUNNY     60  44  55 SW5       30.00S
JAMESTOWN      SUNNY     61  44  53 S12       30.03F
MINOT AFB      SUNNY     61  45  55 NW5       30.00R
GARRISON         N/A     56  45  66 VRB5      30.00F
WILLISTON      SUNNY     55  41  59 CALM      30.02S
DICKINSON      SUNNY     61  46  57 CALM      29.99F
HETTINGER      SUNNY     61  45  55 CALM      30.02F
$$

 *****  OTHER AIRPORT OBSERVATIONS IN OUR AREA  *****

CITY           SKY/WX    TMP DP  RH WIND       PRES   REMARKS
WALHALLA         N/A     64  41  42 NW8       29.99F
GRAFTON AIRPOR PTSUNNY   64  45  48 NW6       30.00S
VALLEY CITY AR FAIR      61  43  51 SW12      30.04F
CANDO          FAIR      63  43  48 W7        30.02S
CAVALIER APRT  FAIR      64  43  45 NW9       29.99F
GWINNER        SUNNY     63  45  51 S13       30.06F
SHEYENNE NWR     N/A     63  44  49 SW8       29.95S
ROLLA          FAIR      66  37  34 W6        30.01S
 ***** THE ABOVE OBSERVATIONS ARE NON NWS ARE NOT QUALITY
       CONTROLLED AND MAY MIS-REPORT RAIN FOR SNOW...
$$

  *****  WEATHER ACROSS NORTHERN MINNESOTA  *****

CITY           SKY/WX    TMP DP  RH WIND       PRES   REMARKS
FLAG ISLAND    PTSUNNY   57  45  62 CALM      29.97S
WARROAD        MOSUNNY   54  45  71 SW5       30.01S
ROSEAU         PTSUNNY   55  45  67 W6        30.00S
HALLOCK        MOSUNNY   59  43  55 W5        30.00S
THF RVR FALLS  SUNNY     59  43  55 SW12      30.03S
BAUDETTE       CLOUDY    57  43  59 VRB5      30.00S
WASKISH        CLOUDY    59  46  63 SW14      30.02F
CROOKSTON      SUNNY     61  45  55 SW12      30.04F
STEPHEN NDAWN    N/A     59  46  63 SW5         N/A
GREENBUSH NDAW   N/A     55  45  67 SW7         N/A
$$
  *****  WEATHER ACROSS CENTRAL AND WEST MINNESOTA  *****

CITY           SKY/WX    TMP DP  RH WIND       PRES   REMARKS
FOSSTON        SUNNY     61  43  51 SW15G21   30.06S
BEMIDJI        SUNNY     62  40  43 W17       30.05S
PARK RAPIDS    SUNNY     61  40  45 W15       30.08F
ELBOW LAKE     FAIR      60  43  54 S6        30.10S
WADENA         SUNNY     63  39  42 W9        30.09S
DETROIT LAKES  SUNNY     61  41  48 SW8       30.09F
MOORHEAD       SUNNY     61  46  59 S7        30.07F
FERGUS FALLS   SUNNY     61  37  41 S5        30.09F
MORRIS MN      SUNNY     63  45  51 SW7       30.09F
STAPLES        SUNNY     61  37  41 W9        30.10S
$$
  *****  WEATHER ELSEWHERE ACROSS MINNESOTA  *****

CITY           SKY/WX    TMP DP  RH WIND       PRES   REMARKS
DULUTH         MOSUNNY   61  39  44 W20G26    30.06F
INTRNTL FALLS  CLOUDY    55  42  61 W14       29.99R
ELY            MOSUNNY   59  43  55 W14       29.99F
CLOQUET        SUNNY     61  37  41 W12       30.07F
WHEATON        SUNNY     63  43  48 S8        30.09F
BRAINERD       SUNNY     58  40  51 W8        30.11F
HIBBING        SUNNY     60  40  47 W13       30.04F
ALEXANDRIA     SUNNY     58  42  55 SW9       30.12F
SAINT CLOUD    SUNNY     63  42  46 W12       30.13F
MINNEAPOLIS    SUNNY     59  42  53 SW10      30.16F
$$

  *****  WEATHER ACROSS SOUTH DAKOTA  *****

CITY           SKY/WX    TMP DP  RH WIND       PRES   REMARKS
SIOUX FALLS    SUNNY     58  45  62 S14       30.15F
BROOKINGS      NOT AVBL
WATERTOWN      SUNNY     59  46  62 S14       30.10F
HURON          SUNNY     60  45  57 S14G22    30.05F
SISSETON         N/A     64  43  46 SW12      30.06F
ABERDEEN       SUNNY     58  46  64 S12G20    30.04F
MITCHELL       SUNNY     60  48  64 MISG      30.08F
PIERRE         SUNNY     61  47  59 S3        29.99F
MOBRIDGE       SUNNY     57  45  64 SW5       29.99F
RAPID CITY     SUNNY     69  47  45 N7        30.03S
$$

  *****  SOME WEATHER IN NEARBY STATES *****

CITY           SKY/WX    TMP DP  RH WIND       PRES   REMARKS
GLASGOW MT     SUNNY     60  38  43 SE8       29.99F
GREAT FALLS MT SUNNY     64  39  39 SW6       30.00S
CHEYENNE WY    SUNNY     74  34  23 NW13G22   30.22S
SCOTTSBLUFF NE SUNNY     63  52  67 NW12      30.10S
OMAHA NE       MOSUNNY   59  47  64 S10       30.22F
DES MOINES IA  MOSUNNY   60  47  61 S6        30.23F
DAVENPORT IA   SUNNY     59  41  51 VRB3      30.24F
CHICAGO IL     MOSUNNY   59  40  49 VRB3      30.20F
EAU CLAIRE WI  SUNNY     58  42  55 W9        30.16F
LA CROSSE WI   SUNNY     58  46  64 S7        30.20F
$$

  *****  SOME NATIONAL WEATHER *****

CITY           SKY/WX    TMP DP  RH WIND       PRES   REMARKS
LA GUARDIA NY  PTSUNNY   61  57  87 SE5       30.00F
RALEIGH NC     MOSUNNY   79  61  53 VRB7      30.05S
ATLANTA GA     PTSUNNY   81  70  69 NW9       30.09F
NEW ORLEANS LA PTSUNNY   85  75  72 CALM      30.08R HX  93
OKLAHOMA CITY  CLOUDY    79  69  71 CALM      30.15F
ALBUQUERQUE NM CLOUDY    68  57  68 CALM      30.32R
SALT LAKE CITY PTSUNNY   77  41  27 E6        30.12R
LOS ANGELES CA MOSUNNY   81  65  58 CALM      29.78S
BOISE ID       PTSUNNY   72  54  53 N8G16     29.99R
SEATTLE WA     CLOUDY    59  54  83 S6        29.91R
$$

*** WEATHER ACROSS MANITOBA...SASKATCHEWAN AND ONTARIO ***
                ***ONTARIO***

CITY           SKY/WX    TMP DP  RH WIND       PRES   REMARKS
GERALDTON      CLOUDY    45  43  93 N9        29.90
THUNDER BAY    PTSUNNY   55  46  71 W7        29.93
SIOUX LOOKOUT  CLOUDY    48  45  87 NE5       29.96R
TORONTO        MOSUNNY   63  41  45 NW13G20   30.08F
BIG TROUT LK   MOSUNNY   36  27  69 NW10G18   30.05S
PICKLE LAKE    PTSUNNY   36  25  64 VRB6      30.02R
DRYDEN         MOSUNNY   55  46  71 NW5       29.96
KENORA         PTSUNNY   57  46  67 N2        29.98S
$$
                *** MANITOBA***

CITY           SKY/WX    TMP DP  RH WIND       PRES   REMARKS
BRANDON        MOSUNNY   57  46  67 E8        29.99F
DAUPHIN        CLOUDY    50  46  87 E8        30.01S
ISLAND LAKE    MOSUNNY   36  23  60 NE6       30.13R
PILOT MOUND      N/A     61  41  48 W5          N/A
THE PAS        LGT RAIN  36  36 100 E8        30.05F
THOMPSON       PTSUNNY   36  25  64 SW2       30.14F
WINNIPEG       PTSUNNY   61  50  67 E7        29.99S
LYNN LAKE      PTSUNNY   34  21  60 MISG      30.12F
CHURCHILL      PTSUNNY   34  25  69 N16G22    30.09S WCI  23
GILLAM         MOSUNNY   36  25  64 NW12      30.12S
$$
                ***SASKATCHEWAN***

CITY           SKY/WX    TMP DP  RH WIND       PRES   REMARKS
ESTEVAN        MOSUNNY   61  41  48 NW2       30.01S
KINDERSLEY     MOSUNNY   59  45  58 VRB2      29.93
LLOYDMINSTER   MOSUNNY   63  50  63 VRB2      29.91S
PRINCE ALBERT  CLOUDY    48  45  87 E12       29.94S
REGINA         MOSUNNY   59  45  58 S3        29.98S
YORKTON        CLOUDY    55  45  67 SW6       29.96F
N. BATTLEFORD  SUNNY     54  43  66 W3        29.93F
LA RONGE       LGT RAIN  39  37  93 E13G20    29.97
SASKATOON      MOSUNNY   59  43  55 SW5       29.94R
SWIFT CURRENT  SUNNY     64  41  42 SW16G25   29.95F
$$
NOTE: THESE ARE AUTOMATED STATIONS WITH LIMITED QUALITY CONTROL
      "FAIR" INDICATES FEW OR NO CLOUDS BELOW 12,000 FEET WITH NO
      SIGNIFICANT WEATHER AND/OR OBSTRUCTIONS TO VISIBILITY.
      SKY/WX - SKY CONDITION AND SIGNIFICANT WEATHER.
      TMP - AIR TEMPERATURE.    DP   - DEWPOINT TEMPERATURE.
      RH  - RELATIVE HUMIDITY.  PRES - PRESSURE.
      HX  - HEAT INDEX.         WCI  - WIND CHILL INDEX.
$


USA.gov is the U.S. government's official web portal to all federal, state and local government web resources and services.